Temp
3 4 4 4 5 5 6 7 8 10 9 10 10 9 8 7 5 6 6 4 4 3 3 4 4 4 4 3 4 5 4 5 5 4 4 4 4 4 5 5 6 5 8 9 11 12 11
3 3 3 3 4 4 4 5 7 9 9 9 10 9 8 8 6 5 5 4 3 3 3 4 4 4 3 3 4 5 4 4 4 4 4 4 4 4 4 5 6 7 8 9 11 11 9
3 3 3 3 3 3 3 3 5 7 7 8 8 7 8 7 6 5 4 4 3 3 3 3 4 4 3 4 5 5 4 4 4 4 4 4 4 3 5 6 6 7 7 9 9 9 9
2 2 2 2 2 2 3 3 3 4 5 6 7 7 8 8 6 5 5 5 3 3 3 3 3 3 3 5 5 5 4 4 4 4 4 4 4 3 4 7 7 6 7 8 8 8 8
2 1 2 2 2 3 2 2 3 3 4 5 5 7 7 7 7 6 5 5 6 2 3 3 3 3 3 5 4 4 3 3 4 4 4 4 3 4 6 6 7 7 7 8 8 9 9
1 1 2 2 2 2 2 2 2 2 2 3 5 5 6 7 6 6 6 5 5 4 3 3 3 3 4 5 4 3 3 3 4 4 4 4 4 4 3 6 7 8 7 7 8 9 9
1 1 1 2 2 1 1 1 2 2 2 4 5 5 6 7 6 6 5 5 4 3 3 5 6 6 6 5 4 3 3 4 4 4 5 6 5 5 4 7 7 8 7 7 8 8 8
1 1 1 1 1 1 1 1 1 2 2 3 4 5 6 6 5 6 5 5 4 5 5 6 6 5 6 5 4 4 4 4 4 5 6 6 6 7 6 6 7 8 8 6 7 8 8
1 1 1 1 1 1 1 1 1 1 2 3 4 4 5 6 5 6 5 6 4 4 4 6 6 6 6 5 5 4 4 4 5 5 6 6 7 7 8 7 7 9 8 8 8 8 8
0 0 0 1 0 0 0 0 1 1 1 2 3 5 4 5 4 5 6 5 4 4 0 5 6 6 6 5 5 5 4 4 5 6 7 6 7 8 7 7 6 8 10 9 8 9 8
0 0 0 0 0 0 0 0 0 0 0 2 3 4 3 4 5 5 5 5 4 4 2 6 6 6 6 5 6 6 5 4 6 6 6 6 7 7 8 8 7 8 9 8 9 8 8
0 0 0 0 0 0 0 0 0 -0 1 1 2 3 4 4 4 5 4 5 4 3 3 4 6 6 6 6 6 6 5 5 6 7 6 6 7 8 7 8 9 9 8 8 8 7 8
0 0 0 -0 -0 -0 -0 -0 -0 -0 -0 1 2 2 1 3 4 4 4 4 2 3 5 4 5 6 6 7 7 7 7 7 6 6 6 4 7 8 8 8 9 9 8 8 8 8 8
-0 -0 -0 -0 -0 -0 -0 -0 -0 -1 0 2 2 3 2 2 3 3 3 3 2 5 4 6 6 6 6 6 7 7 6 6 7 6 4 6 7 7 8 8 8 7 8 8 9 9 8
-0 -0 -0 -1 -0 -0 -1 -1 -1 -0 1 0 0 3 3 3 3 3 3 3 3 4 5 6 6 6 6 6 6 7 6 6 7 6 6 5 7 7 7 8 8 8 6 9 7 7 6
-1 -1 -1 -1 -1 -1 -1 -1 -1 -1 -0 -0 -0 2 3 3 3 2 2 4 4 5 6 6 6 6 5 5 6 6 7 7 8 7 7 7 6 7 7 8 7 7 9 9 6 8 10
-1 -1 -1 -1 -1 -1 -1 -0 -1 -1 -0 -0 0 2 2 3 2 1 3 3 5 6 8 7 5 5 5 5 5 6 7 8 8 8 6 6 6 7 7 6 7 8 8 7 7 6 8
-1 -1 -1 -1 -1 -1 -1 -0 -1 0 -1 -0 -0 1 2 2 2 2 3 4 6 6 7 7 7 6 5 5 6 6 7 7 7 8 7 6 4 4 7 7 7 8 8 7 7 7 3
-1 -1 -1 -1 -1 -1 -1 -1 -1 -0 -0 -1 -0 1 2 2 3 3 3 5 5 6 7 7 8 8 6 6 6 7 7 7 8 7 7 7 4 2 5 6 7 8 8 6 5 4 4
-1 -1 -1 -1 -1 -1 -1 -0 -0 -0 -0 -1 -0 2 2 2 2 3 3 3 5 6 7 8 8 8 7 7 7 6 7 7 8 7 7 7 4 5 4 7 6 7 8 7 6 2 5
-1 -1 -1 -1 -1 -1 -0 -1 -0 -0 -0 -1 0 1 2 2 2 2 1 4 5 6 7 8 8 9 7 6 7 6 7 7 7 7 6 5 4 3 5 6 6 7 7 7 5 6 7
-2 -2 -1 -1 -1 -1 -1 -0 -0 -0 -0 -1 1 2 1 0 2 1 2 3 6 7 7 6 7 8 7 6 6 6 7 7 8 6 6 4 3 4 3 4 5 7 7 6 6 7 7
-2 -1 -1 -1 -1 -1 -1 -0 -0 -0 -0 0 1 1 2 1 2 2 2 3 6 7 6 7 6 6 7 7 7 7 8 7 6 6 5 5 3 3 3 3 5 6 6 6 6 6 6
-2 -1 -1 -1 -0 -0 -0 -0 -0 -0 0 1 2 2 2 2 2 3 3 3 6 7 6 5 7 7 6 8 8 8 8 7 6 4 6 5 3 1 1 3 3 7 6 6 6 6 6
-2 -1 -1 -1 -0 -0 -1 -0 -0 1 2 1 1 2 3 1 2 3 3 3 4 4 4 4 5 6 7 8 6 7 6 7 6 4 5 6 4 3 2 1 5 7 6 6 6 7 5
-1 -1 -1 -1 -0 -0 -1 -1 -0 1 2 1 2 2 3 2 1 0 2 5 4 3 3 3 5 6 7 5 5 5 5 5 5 6 5 4 5 5 5 3 6 6 7 7 7 5 5
-1 -1 -1 -0 -0 0 0 -0 1 1 1 2 2 3 4 1 -1 0 2 4 4 3 1 3 5 6 7 3 5 4 3 4 4 4 5 5 6 6 5 3 4 5 7 7 6 6 5
-2 -1 -1 -0 0 0 0 1 1 1 1 2 3 4 4 1 -1 -0 1 3 4 5 3 4 6 6 4 4 5 4 3 2 3 3 3 4 3 5 5 5 3 6 6 6 5 4 5
-1 -1 -0 -0 0 0 1 2 2 2 1 2 3 4 4 3 -0 -0 -0 1 3 3 4 3 3 3 4 1 1 1 3 1 2 3 2 4 3 3 3 4 4 5 5 5 5 5 5
Height
1537 1534 1531 1528 1525 1523 1518 1515 1512 1509 1507 1504 1501 1499 1497 1495 1493 1493 1489 1487 1484 1483 1480 1478 1479 1478 1477 1475 1470 1470 1468 1467 1466 1464 1463 1463 1462 1461 1455 1453 1459 1463 1456 1456 1457 1456 1460
1534 1531 1527 1524 1521 1518 1514 1511 1508 1505 1502 1500 1495 1494 1494 1492 1490 1487 1486 1484 1480 1477 1478 1475 1477 1476 1475 1473 1467 1467 1466 1464 1463 1462 1461 1461 1460 1458 1455 1452 1456 1456 1457 1455 1455 1455 1458
1534 1529 1526 1522 1519 1515 1510 1505 1504 1500 1498 1496 1492 1491 1488 1487 1485 1483 1483 1481 1478 1475 1474 1472 1474 1474 1473 1469 1466 1465 1463 1462 1461 1461 1459 1458 1457 1455 1452 1449 1449 1453 1456 1456 1454 1457 1459
1531 1527 1524 1520 1517 1513 1508 1504 1499 1495 1494 1491 1486 1484 1482 1480 1480 1479 1478 1478 1473 1473 1471 1470 1471 1472 1468 1464 1464 1462 1460 1459 1458 1459 1457 1455 1454 1451 1447 1442 1443 1449 1454 1456 1455 1458 1465
1529 1526 1522 1519 1515 1510 1506 1503 1496 1492 1489 1485 1481 1479 1478 1476 1475 1473 1474 1474 1471 1471 1469 1469 1470 1469 1465 1463 1461 1459 1456 1456 1457 1456 1454 1453 1453 1450 1444 1442 1442 1446 1449 1453 1454 1456 1466
1528 1524 1521 1517 1513 1509 1505 1501 1495 1490 1485 1480 1476 1473 1474 1472 1470 1468 1469 1470 1469 1468 1468 1468 1468 1471 1463 1462 1459 1456 1453 1455 1455 1454 1452 1452 1450 1450 1449 1444 1438 1442 1454 1455 1454 1452 1458
1527 1523 1518 1515 1511 1507 1503 1498 1492 1488 1482 1475 1472 1470 1468 1467 1466 1465 1465 1469 1472 1469 1464 1461 1461 1459 1458 1460 1458 1455 1454 1454 1455 1454 1451 1448 1448 1446 1446 1442 1441 1439 1447 1454 1458 1458 1460
1524 1520 1517 1512 1508 1504 1499 1494 1489 1485 1478 1472 1471 1466 1463 1462 1462 1462 1461 1465 1468 1467 1460 1458 1458 1457 1457 1458 1457 1455 1455 1455 1454 1451 1449 1448 1445 1442 1444 1445 1443 1444 1448 1456 1457 1455 1454
1522 1518 1512 1508 1504 1500 1495 1491 1488 1482 1476 1471 1467 1464 1463 1458 1459 1460 1458 1462 1465 1465 1461 1455 1455 1455 1456 1457 1455 1453 1454 1453 1452 1450 1447 1445 1443 1441 1439 1441 1446 1442 1440 1446 1446 1457 1457
1518 1511 1508 1505 1500 1496 1493 1488 1483 1478 1472 1469 1465 1461 1459 1456 1459 1456 1456 1460 1464 1464 1470 1455 1453 1454 1455 1454 1453 1452 1452 1454 1449 1447 1445 1444 1444 1441 1443 1444 1448 1445 1442 1443 1451 1455 1464
1515 1511 1508 1503 1499 1494 1489 1485 1480 1474 1469 1464 1460 1457 1455 1452 1452 1454 1456 1458 1463 1464 1484 1454 1452 1452 1452 1454 1452 1450 1450 1450 1446 1445 1447 1445 1442 1444 1441 1444 1447 1446 1444 1448 1451 1457 1461
1513 1509 1505 1500 1496 1492 1488 1483 1477 1471 1465 1459 1456 1452 1450 1448 1449 1452 1454 1458 1463 1470 1469 1453 1449 1449 1451 1451 1450 1450 1448 1449 1445 1445 1444 1444 1443 1442 1444 1443 1442 1445 1447 1446 1454 1460 1469
1510 1505 1501 1496 1492 1488 1483 1479 1473 1466 1459 1452 1449 1448 1448 1445 1444 1450 1452 1458 1471 1467 1450 1452 1448 1447 1448 1449 1448 1448 1446 1446 1445 1447 1444 1451 1444 1444 1446 1447 1448 1449 1454 1459 1463 1467 1467
1507 1502 1497 1492 1487 1483 1479 1474 1467 1461 1453 1444 1439 1434 1436 1441 1443 1446 1451 1459 1467 1446 1447 1441 1442 1446 1448 1449 1449 1448 1448 1449 1444 1446 1453 1450 1448 1452 1449 1452 1452 1457 1457 1459 1461 1463 1470
1501 1497 1491 1486 1481 1477 1472 1467 1461 1454 1447 1440 1434 1424 1429 1435 1439 1443 1450 1455 1444 1439 1436 1437 1442 1446 1450 1449 1451 1449 1448 1448 1446 1446 1450 1458 1454 1455 1453 1453 1456 1457 1464 1453 1461 1466 1478
1496 1491 1487 1482 1476 1471 1467 1462 1456 1449 1443 1438 1428 1421 1422 1430 1435 1441 1447 1442 1437 1431 1430 1433 1441 1444 1452 1451 1452 1450 1448 1446 1446 1444 1445 1450 1459 1458 1457 1456 1458 1456 1453 1455 1461 1465 1464
1491 1486 1482 1477 1472 1467 1463 1457 1452 1446 1440 1433 1423 1419 1421 1427 1434 1441 1439 1439 1433 1429 1428 1431 1439 1445 1447 1451 1452 1452 1451 1447 1446 1447 1447 1450 1456 1462 1461 1464 1460 1457 1454 1456 1460 1472 1473
1486 1481 1476 1472 1467 1462 1457 1452 1448 1443 1438 1433 1428 1424 1421 1425 1433 1435 1434 1434 1431 1428 1428 1428 1432 1438 1446 1451 1452 1450 1448 1448 1446 1445 1450 1451 1461 1470 1464 1461 1461 1461 1458 1459 1467 1473 1496
1481 1476 1472 1466 1461 1458 1454 1448 1444 1441 1438 1433 1429 1425 1421 1424 1426 1429 1433 1433 1430 1428 1426 1428 1431 1434 1441 1446 1450 1448 1447 1446 1445 1447 1450 1452 1468 1488 1473 1463 1457 1455 1454 1461 1468 1479 1489
1476 1470 1466 1461 1456 1452 1449 1445 1440 1437 1436 1433 1429 1423 1421 1425 1427 1430 1433 1436 1432 1426 1426 1426 1429 1433 1438 1443 1445 1449 1447 1446 1446 1447 1449 1451 1465 1467 1482 1465 1465 1463 1461 1463 1469 1492 1480
1470 1466 1460 1455 1451 1447 1444 1441 1438 1434 1432 1431 1426 1422 1421 1422 1428 1432 1435 1432 1429 1426 1425 1426 1430 1432 1437 1445 1446 1448 1449 1450 1450 1450 1451 1454 1467 1472 1471 1470 1467 1465 1464 1466 1473 1470 1474
1464 1460 1454 1449 1446 1443 1440 1435 1432 1430 1427 1425 1423 1420 1421 1423 1425 1431 1434 1431 1426 1424 1425 1430 1431 1432 1436 1443 1445 1449 1447 1449 1450 1454 1456 1459 1474 1469 1475 1470 1468 1465 1467 1469 1468 1468 1468
1458 1454 1448 1443 1440 1437 1433 1430 1426 1424 1423 1419 1416 1418 1421 1423 1424 1428 1431 1431 1427 1425 1428 1428 1432 1436 1438 1440 1442 1444 1446 1448 1450 1455 1459 1463 1471 1477 1483 1477 1473 1471 1465 1465 1464 1464 1466
1452 1448 1443 1438 1434 1430 1427 1423 1419 1416 1416 1417 1414 1417 1420 1423 1425 1424 1428 1431 1427 1427 1429 1432 1432 1434 1442 1441 1444 1447 1449 1451 1453 1456 1457 1464 1471 1482 1492 1482 1492 1464 1462 1461 1463 1463 1463
1448 1443 1439 1434 1429 1426 1421 1418 1413 1409 1408 1409 1413 1416 1419 1422 1422 1423 1428 1430 1428 1431 1432 1433 1435 1436 1440 1441 1449 1452 1458 1455 1459 1462 1461 1460 1469 1481 1492 1498 1475 1460 1465 1466 1464 1461 1461
1444 1438 1433 1430 1424 1420 1416 1412 1407 1405 1407 1410 1413 1416 1418 1420 1425 1425 1426 1427 1429 1433 1436 1437 1438 1439 1441 1447 1452 1458 1464 1462 1465 1463 1464 1464 1465 1474 1478 1488 1472 1465 1462 1460 1460 1470 1461
1440 1434 1428 1423 1419 1414 1410 1406 1403 1405 1406 1411 1414 1417 1419 1421 1425 1425 1425 1426 1428 1431 1438 1439 1440 1442 1443 1451 1455 1462 1470 1465 1468 1468 1468 1467 1468 1470 1475 1488 1475 1462 1460 1461 1471 1472 1462
1435 1431 1425 1419 1414 1408 1403 1401 1401 1402 1406 1411 1415 1417 1419 1422 1427 1426 1426 1426 1428 1429 1435 1440 1442 1444 1446 1452 1456 1461 1465 1466 1467 1466 1468 1470 1476 1470 1475 1476 1483 1459 1461 1465 1463 1461 1461
1431 1428 1422 1417 1411 1404 1399 1397 1397 1402 1407 1413 1417 1420 1421 1423 1430 1429 1428 1429 1430 1431 1433 1437 1441 1440 1443 1453 1458 1461 1462 1468 1468 1468 1466 1468 1466 1472 1472 1468 1459 1459 1459 1459 1459 1460 1461
Wind_Speed
24 24 25 26 28 28 28 28 29 28 26 30 30 29 25 23 18 22 22 19 18 17 19 10 9 13 12 8 15 11 9 10 12 13 11 11 10 6 8 5 15 21 12 18 17 19 20
26 27 26 27 27 27 28 31 31 30 25 27 24 26 27 32 20 19 21 20 19 14 17 12 10 12 12 8 6 8 10 11 12 13 13 11 8 7 9 7 9 12 21 9 17 17 9
26 27 28 28 29 29 28 27 30 31 26 12 12 21 30 30 22 16 19 21 18 14 15 11 10 10 12 19 11 11 13 15 13 13 13 12 13 11 6 4 24 26 10 8 6 9 7
27 28 29 29 28 30 29 30 29 27 28 24 26 24 28 29 21 16 19 23 17 14 10 5 5 8 9 15 11 15 11 15 14 12 14 15 11 12 13 4 3 7 6 7 2 12 10
27 27 28 29 28 28 29 28 30 29 26 25 26 25 22 25 21 15 18 20 13 11 6 5 6 6 9 8 13 14 16 15 14 12 12 8 5 5 3 4 4 7 2 7 2 13 10
27 27 27 28 28 29 28 29 30 32 31 24 22 22 22 27 17 10 14 15 10 7 6 6 6 4 6 8 11 11 4 7 10 11 8 5 5 2 3 5 5 6 5 3 4 2 14
26 26 27 28 28 29 29 30 30 30 32 28 22 21 17 23 16 10 7 9 3 6 10 8 5 5 7 10 5 6 6 3 4 6 2 4 2 3 2 7 3 6 6 9 5 4 5
26 27 27 27 29 30 31 32 32 32 33 32 21 21 18 22 15 10 4 8 9 6 5 12 12 11 12 9 2 5 3 1 2 2 3 3 2 3 12 8 7 4 9 5 8 9 4
27 27 29 30 30 31 33 33 33 31 31 33 19 21 17 19 13 10 6 12 10 7 2 4 6 5 5 5 3 4 3 2 3 3 5 2 1 2 4 9 3 4 7 8 4 4 9
30 32 31 32 35 33 34 33 33 33 30 31 26 21 26 23 13 8 7 8 8 3 4 3 3 3 2 3 3 4 1 4 4 2 3 2 2 3 5 4 4 3 8 10 13 5 1
31 31 30 31 31 33 35 35 35 36 35 33 29 21 28 28 8 10 3 8 7 2 2 1 3 2 2 3 2 2 4 7 4 3 2 1 2 4 3 3 5 5 8 9 10 8 5
32 30 31 32 32 32 33 34 34 36 37 36 34 20 18 23 16 10 7 8 5 4 6 2 4 2 1 3 3 1 4 7 4 3 3 2 1 2 2 6 5 8 11 8 5 5 3
32 32 32 33 33 34 34 34 35 37 38 41 33 27 24 24 16 15 14 11 3 3 2 3 4 3 2 1 3 0 1 3 2 1 3 3 5 3 5 6 2 5 3 3 3 2 1
32 32 33 34 33 34 34 35 35 38 41 41 37 29 27 28 12 20 19 3 2 3 5 3 4 3 2 2 1 2 2 2 1 1 3 4 3 6 7 3 5 3 3 2 4 3 3
32 32 32 36 34 36 35 33 35 36 39 36 46 17 21 25 19 25 16 3 6 6 6 8 4 3 1 1 1 2 1 1 2 2 4 3 4 4 4 3 2 3 2 2 5 3 4
34 32 31 35 38 37 35 34 32 33 34 36 45 11 28 24 27 26 3 6 3 3 4 5 4 3 4 3 2 1 1 1 1 3 1 2 5 3 4 6 4 2 2 1 3 3 3
35 35 33 34 38 37 35 34 31 31 33 33 29 2 12 29 29 15 4 5 3 9 6 5 5 4 3 4 4 2 2 2 1 2 3 2 3 1 1 1 2 2 2 5 5 3 3
33 34 32 35 37 36 35 34 30 29 30 33 14 3 16 29 5 3 3 3 4 5 3 3 5 4 5 5 3 2 3 1 2 0 3 2 4 4 2 2 3 3 2 3 4 1 1
32 34 33 36 36 35 33 31 31 28 24 31 8 6 11 28 3 3 1 3 3 3 3 4 3 3 3 5 4 1 2 4 1 3 3 3 2 3 7 5 4 4 4 5 6 2 1
31 33 34 36 35 35 32 30 30 28 27 24 6 2 3 12 1 2 4 3 4 4 2 4 4 5 4 3 3 4 2 3 3 3 7 4 3 4 5 3 1 2 1 3 4 3 3
31 34 35 35 35 34 31 30 28 25 26 21 6 3 3 3 5 3 3 4 5 4 1 3 3 2 6 3 2 2 2 2 4 4 5 3 4 3 4 4 2 2 3 3 2 4 4
31 33 36 35 32 32 31 30 28 27 26 21 6 3 2 2 11 7 5 3 6 1 4 3 5 4 4 6 5 7 5 3 2 5 3 4 1 3 5 6 5 1 2 4 3 3 3
31 34 35 34 34 32 32 29 30 26 16 9 9 8 6 2 4 7 5 4 6 5 7 8 8 5 4 5 4 8 8 8 6 4 2 3 3 3 2 5 6 4 5 5 3 2 5
32 34 33 33 32 32 30 30 29 20 13 21 10 12 5 2 2 4 4 5 7 0 6 2 8 5 5 23 21 19 18 16 12 7 4 4 3 2 1 3 2 4 1 1 4 3 6
32 33 33 32 32 32 31 29 28 20 7 13 18 9 4 2 2 5 5 6 6 8 4 4 4 9 18 8 4 4 4 2 4 5 4 3 4 3 3 2 5 1 2 4 5 4 5
31 32 32 32 33 30 28 29 27 14 7 21 19 9 4 5 2 1 2 7 3 3 3 3 9 18 5 3 3 3 4 2 1 3 3 5 5 4 2 2 3 4 1 4 2 4 2
29 30 32 33 33 29 30 29 8 4 23 20 14 10 5 6 2 1 1 3 5 6 4 2 3 3 4 2 2 2 2 2 4 6 4 3 2 2 2 1 6 5 2 2 4 4 5
27 28 31 31 31 34 28 15 7 19 25 24 16 7 4 5 8 2 2 3 4 5 4 6 5 1 3 3 3 2 2 4 2 2 4 5 5 3 2 1 6 2 3 5 3 3 7
24 28 28 30 32 28 16 12 9 20 29 19 14 9 7 4 8 13 14 11 8 5 9 8 2 3 4 4 1 3 2 2 4 3 1 2 5 5 7 5 2 2 3 2 5 7 7
Wind_Direction
350 351 341 333 324 314 302 303 303 306 309 313 319 299 294 296 305 306 308 301 294 288 291 240 283 297 299 294 272 286 269 288 311 325 308 282 251 229 225 177 185 251 257 214 245 200 201
352 347 344 346 342 330 322 308 302 306 309 320 322 311 312 299 303 309 309 305 298 287 279 244 261 285 296 270 281 283 270 288 304 311 301 274 260 232 281 207 198 243 227 260 219 222 198
349 350 349 346 343 340 342 332 312 300 309 323 297 318 307 290 293 314 306 303 295 287 278 243 245 272 278 271 278 274 272 280 293 298 295 288 276 256 263 184 216 236 208 226 217 223 243
349 349 346 345 344 343 340 343 337 326 313 314 303 308 307 282 291 310 311 306 296 277 269 256 236 264 262 294 297 297 288 281 280 289 288 293 262 273 226 248 190 191 227 191 137 147 172
351 347 345 347 345 345 344 342 342 339 336 322 312 310 307 274 287 315 308 304 288 280 265 263 245 236 271 306 298 298 285 260 262 291 296 284 240 269 320 242 151 157 144 188 144 178 171
348 345 347 346 346 344 346 341 344 343 340 334 328 324 302 288 277 301 312 300 275 250 232 213 226 261 262 304 322 329 312 238 257 293 307 225 228 6 355 222 183 142 131 151 136 93 179
350 348 345 345 345 343 343 341 342 341 341 342 337 327 300 268 274 293 324 286 277 233 209 210 204 242 282 316 330 26 46 58 252 241 267 220 196 225 341 93 68 94 98 106 74 120 171
347 346 344 343 342 343 343 342 346 342 342 338 340 350 305 266 271 283 285 225 263 283 288 243 245 262 274 283 282 329 332 334 298 299 259 243 250 170 141 165 50 55 133 107 81 9 125
341 341 340 339 336 336 340 341 340 341 341 340 337 324 289 258 269 272 253 241 253 268 270 242 220 251 258 225 254 321 290 285 261 244 233 257 39 272 95 90 63 206 168 163 99 89 35
339 341 341 338 337 339 336 337 337 341 335 333 334 297 328 254 273 246 244 228 236 240 50 231 218 235 206 205 246 324 283 229 227 268 270 335 333 206 114 126 87 127 166 140 132 135 6
333 335 331 333 332 334 334 334 332 336 334 330 330 299 310 244 227 205 184 209 205 172 1 206 174 207 206 201 285 358 228 217 246 225 190 32 103 80 109 129 136 85 102 119 119 92 69
326 326 327 327 327 327 328 327 329 330 330 331 324 318 306 224 222 197 180 176 168 50 255 181 155 209 225 183 222 194 236 225 269 19 52 179 315 70 138 109 178 120 81 58 69 90 161
323 322 323 324 324 321 322 325 325 328 328 327 316 304 296 226 224 177 174 156 58 184 359 211 202 155 197 339 358 285 347 8 318 88 28 354 30 31 64 88 110 53 54 93 72 37 47
323 322 321 319 320 321 320 321 322 326 329 325 307 273 260 236 196 171 164 86 188 189 202 188 147 106 164 77 301 307 359 54 297 80 66 57 48 360 345 60 103 49 49 181 143 141 147
319 320 320 321 322 318 319 321 320 324 330 321 323 288 245 206 181 174 159 167 219 197 177 143 91 137 131 1 158 1 357 99 288 26 101 99 45 321 28 38 93 239 216 254 111 63 75
317 315 318 317 317 324 324 323 322 320 328 324 327 223 191 191 173 169 176 230 243 210 147 115 133 165 154 202 149 20 316 56 21 7 132 136 91 21 6 29 350 251 301 114 6 113 87
319 317 316 317 318 325 325 325 322 322 326 328 339 279 193 175 168 164 209 229 266 238 156 128 151 130 159 173 170 176 315 345 326 89 113 132 91 173 91 150 211 287 295 55 96 50 111
318 316 317 316 317 322 325 324 325 322 328 336 324 298 177 172 148 184 194 192 247 206 178 116 120 108 142 157 143 201 154 176 340 297 52 17 112 67 154 250 247 227 139 99 101 218 65
318 315 318 316 320 323 324 323 324 325 330 335 308 270 186 171 160 161 290 278 286 213 156 136 117 118 146 161 138 173 113 328 82 73 124 172 38 60 350 349 351 28 17 70 90 83 163
316 315 317 319 321 322 322 323 323 321 324 328 270 267 142 178 162 104 111 267 262 245 123 120 118 119 113 100 36 163 101 358 32 75 66 94 104 137 169 185 123 118 165 107 101 93 166
315 316 318 319 320 321 322 324 322 317 320 327 260 222 209 166 190 124 154 243 200 173 131 148 90 156 135 113 73 128 128 119 33 35 38 71 84 78 69 69 111 155 178 185 105 161 128
315 316 317 319 320 322 320 322 319 316 314 311 239 195 137 94 165 154 210 273 216 147 134 163 143 133 116 140 181 191 142 124 150 27 58 2 75 67 14 356 15 49 153 171 181 191 248
315 317 319 320 322 320 322 322 316 307 316 295 182 162 131 135 144 175 188 241 221 143 27 141 149 106 117 173 152 123 91 87 113 129 108 77 114 72 318 339 343 332 231 197 215 201 135
316 319 320 322 325 325 323 317 313 315 298 299 187 144 134 153 190 187 153 198 211 257 131 16 131 103 130 114 98 83 75 73 70 33 53 110 90 69 188 7 32 254 71 187 229 259 225
318 321 323 326 325 325 320 318 317 328 289 202 170 158 165 97 174 172 219 195 108 83 56 82 59 128 141 93 73 79 3 51 61 36 53 79 104 86 110 193 286 218 182 174 178 283 203
321 321 324 327 326 325 320 320 320 350 197 168 160 141 106 124 232 153 203 186 141 100 32 55 95 141 102 75 86 122 177 154 195 77 74 74 93 105 146 114 230 241 190 202 128 295 169
320 323 325 329 330 326 323 320 268 268 171 173 152 131 123 102 49 112 191 125 123 105 97 100 133 91 119 87 80 143 210 175 158 163 166 128 92 149 147 248 286 244 222 142 89 240 164
322 325 331 334 331 326 322 316 255 194 169 175 137 102 65 107 55 79 98 114 120 124 130 160 112 26 49 75 121 190 147 214 97 161 175 157 142 168 117 198 273 180 104 164 220 139 166
326 329 336 336 332 332 319 298 198 166 170 168 170 164 88 83 116 93 82 81 91 112 127 146 133 134 150 91 96 122 128 117 154 213 357 203 177 180 182 214 218 220 205 286 192 175 179